Погода в Большом Калтае

Россия / Алтайский край     54°07′38″N   84°15′44″E
темп.,
°C
ветер,
м/с
пор.,
м/с
влажн.,
%
обл.,
%
осадки,
мм/ч
давл.,
гПа
погр.,
м
10 мая, пн
пн1001:00+4св411630 0.0 1021343
04:00+3св412755 0.0 1021393
07:00+4всв412813 0.0 1022521
10:00+10всв710555 0.0 1021980
13:00+14всв78380 0.0 10191426
16:00+16всв67325 0.0 10181742
19:00+15всв5841100 0.0 10171743
22:00+10св41155100 0.0 1017298
11 мая, вт
вт1101:00+8св41066100 0.0 1016335
04:00+5ссв4117613 0.0 1016310
07:00+6ссв512735 0.0 1016470
10:00+12св69505 0.0 10151219
13:00+16св68375 0.0 10142085
16:00+18св6730100 0.0 10132871
19:00+17ссв573899 0.0 10141501
22:00+12с6124848 0.0 1016447
12 мая, ср
ср1201:00+10ссв513627 0.0 1017428
04:00+8с411805 0.0 1017267
07:00+8с410806 0.0 1018289
10:00+15ссв57495 0.0 1018845
13:00+18ссв5634100 0.0 10172779
16:00+18с453442 0.0 10172229
19:00+16св564492 0.0 10181689
22:00+12с225772 0.0 101926
13 мая, чт
чт1301:00+9с116713 0.0 101910
04:00+8всв117314 0.0 101913
07:00+10юв126764 0.0 101965
10:00+16вюв22416 0.0 10181021
13:00+17юв123392 0.0 10172223
16:00+19зсз223199 0.0 10162410
19:00+17з123985 0.0 10161590
22:00+11сз36675 0.0 101698
14 мая, пт
пт1401:00+9зсз2476100 0.1 101671
04:00+9сз3982100 0.4 1015253
07:00+9зсз2687100 0.9 1015316
10:00+13сз67608 0.2 10151415
13:00+13ссз585888 0.3 10161551
16:00+13зсз595090 0.1 10172074
19:00+13сз683779 0.1 10181989
22:00+6с2247100 0.0 102221